Location: Asheville, NC
(35.6000°N, 82.5500°W)
Time: 02:40:38
(UTC-04:00)

NANOSAT C BR1 - Visible Passes

Search period start: 18 July 2018 00:00
Search period end: 28 July 2018 00:00
Orbit: 589 x 609 km, 97.9° (Epoch: 17 July)

Date Brightness Start Highest point End Pass type
(mag) Time Alt. Az. Time Alt. Az. Time Alt. Az.
18 Jul ? 01:24:23 10° NNE 01:25:31 17° NE 01:25:31 17° NE visible
18 Jul ? 03:01:35 10° NW 03:02:15 12° NW 03:02:15 12° NW visible
19 Jul ? 01:35:05 10° NNE 01:36:25 20° NNE 01:36:25 20° NNE visible
20 Jul ? 01:45:51 10° NNE 01:47:19 21° NNE 01:47:19 21° NNE visible
21 Jul ? 01:56:40 10° N 01:58:12 22° N 01:58:12 22° N visible
22 Jul ? 02:07:33 10° N 02:09:06 21° N 02:09:06 21° N visible
23 Jul ? 02:18:31 10° N 02:20:00 20° NNW 02:20:00 20° NNW visible
24 Jul ? 02:29:32 10° N 02:30:53 18° NNW 02:30:53 18° NNW visible
25 Jul ? 01:04:56 10° NE 01:05:02 10° NE 01:05:02 10° NE visible
25 Jul ? 02:40:39 10° NNW 02:41:46 15° NNW 02:41:46 15° NNW visible
26 Jul ? 01:15:27 10° NNE 01:15:55 13° NE 01:15:55 13° NE visible
26 Jul ? 02:51:53 10° NNW 02:52:39 13° NW 02:52:39 13° NW visible
27 Jul ? 01:26:05 10° NNE 01:26:48 14° NNE 01:26:48 14° NNE visible
27 Jul ? 03:03:23 10° NW 03:03:32 10° NW 03:03:32 10° NW visible
